File timestamp: Thu Sep  1 02:00:00 2016, Internal temp: 21.66748046875
1472695201, -0.0181983038783073, -0.0878061279654503, 0.115859441459179, 32676, 31810, 23300, 121.502838134766
1472695202, -0.0133449323475361, -0.0875837728381157, 0.116073988378048, 32674, 31828, 23291, NaN
1472695203, -0.0101863127201796, -0.0880004242062569, 0.115861371159554, 32675, 31822, 23307, NaN
1472695204, -0.00909515470266342, -0.0879069268703461, 0.116579741239548, 32687, 31810, 23294, NaN
1472695205, -0.00729512656107545, -0.0882047489285469, 0.116066046059132, 32679, 31830, 23304, NaN
1472695206, -0.00446807546541095, -0.0882090330123901, 0.116858907043934, 32676, 31814, 23305, NaN
1472695207, -0.0021837989334017, -0.0876863896846771, 0.116725236177444, 32684, 31828, 23300, NaN
1472695208, 2.41786437982228e-05, -0.0870579779148102, 0.116400681436062, 32679, 31831, 23301, NaN
1472695209, 0.0026810250710696, -0.0868487507104874, 0.115931555628777, 32679, 31815, 23299, NaN
1472695209, 0.00597367342561483, -0.0861825868487358, 0.116262808442116, 32688, 31833, 23286, NaN
1472695210.008, 0.0102048013359308, -0.0863881558179855, 0.116394951939583, 32683, 31817, 23301, NaN
1472695211.008, 0.0150498151779175, -0.0858186334371567, 0.116027601063251, 32664, 31826, 23291, NaN
1472695212.008, 0.0191307030618191, -0.0851739570498466, 0.117027096450329, 32680, 31824, 23289, NaN
1472695213.008, 0.0221262499690056, -0.0852466598153114, 0.116847574710846, 32673, 31819, 23305, NaN
1472695213.008, 0.0243658199906349, -0.0854264721274376, 0.117043673992157, 32676, 31824, 23301, NaN
1472695214.016, 0.0289234686642885, -0.0845951661467552, 0.116618417203426, 32678, 31833, 23303, NaN
1472695215.016, 0.0384726300835609, -0.0842508748173714, 0.115756630897522, 32680, 31826, 23293, NaN
1472695216.016, 0.0539215616881847, -0.0843306258320808, 0.116406820714474, 32687, 31826, 23287, NaN
1472695217.016, 0.0683614164590836, -0.0846287235617638, 0.116180494427681, 32673, 31821, 23298, NaN
1472695217.016, 0.055084690451622, -0.0857010930776596, 0.115206256508827, 32674, 31827, 23310, NaN
1472695218.022, 0.0432214140892029, -0.0863600373268127, 0.115561164915562, 32688, 31834, 23290, NaN
1472695219.022, 0.032702311873436, -0.0858861729502678, 0.115754351019859, 32686, 31829, 23289, NaN
1472695220.022, 0.0234556123614311, -0.0855156481266022, 0.115570433437824, 32677, 31828, 23303, NaN
1472695221.022, 0.0154072921723127, -0.0848215147852898, 0.11555739492178, 32675, 31823, 23296, NaN
1472695221.022, 0.00848149228841066, -0.0852026641368866, 0.115956477820873, 32663, 31805, 23309, NaN
1472695222.026, 0.00260100909508765, -0.0849983096122742, 0.115382961928844, 32677, 31830, 23300, NaN
1472695223.026, -0.00231215171515942, -0.08466886729002, 0.115952864289284, 32688, 31835, 23288, NaN
1472695224.026, -0.00633618608117104, -0.0839003622531891, 0.115652605891228, 32672, 31819, 23299, NaN
1472695225.026, -0.00954888854175806, -0.0839638784527779, 0.115470610558987, 32668, 31821, 23293, NaN
1472695226.026, -0.0120270624756813, -0.0839656591415405, 0.115677401423454, 32676, 31818, 23302, NaN
1472695227.026, -0.0138459466397762, -0.0839834064245224, 0.115826085209846, 32674, 31824, 23299, NaN
1472695228.026, -0.0150786899030209, -0.0841981843113899, 0.116190068423748, 32673, 31820, 23285, NaN
1472695229.026, -0.0157958585768938, -0.0843305960297585, 0.117082387208939, 32669, 31815, 23296, NaN
1472695230.026, -0.0160650126636028, -0.0831061899662018, 0.116835087537766, 32679, 31824, 23297, NaN
1472695231.026, -0.0159503296017647, -0.0835998132824898, 0.116715773940086, 32675, 31817, 23293, NaN
1472695232.026, -0.0155122941359878, -0.083613708615303, 0.116423733532429, 32682, 31822, 23294, NaN
1472695233.026, -0.0148074487224221, -0.0842685401439667, 0.116676978766918, 32683, 31828, 23286, NaN
1472695234.026, -0.0138882165774703, -0.084155909717083, 0.115931369364262, 32687, 31823, 23300, NaN
1472695235.036, -0.012802766636014, -0.0844036713242531, 0.115773446857929, 32697, 31823, 23282, NaN
1472695235.036, -0.011594956740737, -0.0843231379985809, 0.116235420107841, 32685, 31822, 23300, NaN
1472695236.044, -0.0103043150156736, -0.0851123183965683, 0.115239195525646, 32672, 31822, 23302, NaN
1472695237.044, -0.00896608270704746, -0.0846313536167145, 0.114462859928608, 32679, 31808, 23297, NaN
1472695238.044, -0.0076112961396575, -0.0852038487792015, 0.11409704387188, 32669, 31824, 23308, NaN
1472695239.044, -0.00626691337674856, -0.0855388790369034, 0.113761708140373, 32675, 31821, 23284, NaN
1472695239.044, -0.00495597207918763, -0.0852012932300568, 0.11389434337616, 32677, 31818, 23303, NaN
1472695240.05, -0.00369778205640614, -0.0862728655338287, 0.114407084882259, 32676, 31827, 23291, NaN
1472695241.05, -0.00250813853926957, -0.08658117800951, 0.114545255899429, 32679, 31830, 23293, NaN
1472695242.05, -0.00139955675695091, -0.0867179781198502, 0.113863542675972, 32667, 31819, 23296, NaN
1472695243.05, -0.000381520425435156, -0.0868047550320625, 0.113483726978302, 32681, 31829, 23285, NaN
1472695244.05, 0.000539258471690118, -0.0867794752120972, 0.112483277916908, 32677, 31820, 23292, NaN
1472695245.05, 0.00135857530403882, -0.087483711540699, 0.111284285783768, 32677, 31832, 23292, NaN
1472695246.05, 0.00207446748390794, -0.0877622961997986, 0.112012289464474, 32684, 31818, 23291, NaN
1472695247.05, 0.00263042538426816, -0.0873033255338669, 0.111673228442669, 32675, 31824, 23307, NaN
1472695248.05, 0.00101839832495898, -0.0868229046463966, 0.111748702824116, 32683, 31818, 23299, NaN
1472695249.05, -0.00269099394790828, -0.0872206762433052, 0.111946478486061, 32675, 31813, 23293, NaN
1472695250.05, -0.00751550076529384, -0.0870166346430779, 0.111355520784855, 32679, 31831, 23296, NaN
1472695251.05, -0.0121375881135464, -0.0867921859025955, 0.111201882362366, 32683, 31823, 23289, NaN
1472695252.05, -0.0168760512024164, -0.0866273641586304, 0.110527217388153, 32687, 31824, 23302, NaN
1472695253.05, -0.0214615035802126, -0.0860054194927216, 0.110808327794075, 32694, 31823, 23292, NaN
1472695254.05, -0.0248846933245659, -0.0862184539437294, 0.110517337918282, 32684, 31825, 23286, NaN
1472695255.05, -0.0271842479705811, -0.0866182968020439, 0.111168436706066, 32680, 31821, 23292, 123.085037231445
1472695256.05, -0.0280572734773159, -0.0866395682096481, 0.111620418727398, 32689, 31824, 23277, NaN
1472695257.05, -0.0271842926740646, -0.0863762274384499, 0.112043865025043, 32682, 31820, 23296, NaN
1472695258.05, -0.0254421457648277, -0.0859614089131355, 0.113196454942226, 32678, 31815, 23303, NaN
1472695259.05, -0.0227469224482775, -0.0856821835041046, 0.113575756549835, 32673, 31830, 23298, NaN
1472695260.05, -0.018566332757473, -0.0861524641513824, 0.114206105470657, 32675, 31830, 23292, NaN
1472695261.05, -0.0128462761640549, -0.0864665433764458, 0.1135548427701, 32688, 31833, 23294, NaN
1472695262.058, -0.00822405330836773, -0.0858269333839417, 0.114775456488132, 32679, 31825, 23295, NaN
1472695262.058, -0.00412476761266589, -0.0859041884541512, 0.115241758525372, 32687, 31827, 23301, NaN
1472695263.066, 0.000642684113699943, -0.0856434032320976, 0.115119017660618, 32676, 31821, 23308, NaN
1472695264.066, 0.00577084813266993, -0.0849122032523155, 0.115256629884243, 32686, 31832, 23289, NaN
1472695265.066, 0.0112795438617468, -0.0848382115364075, 0.114555068314075, 32686, 31829, 23299, NaN
1472695266.066, 0.0165284741669893, -0.0848666355013847, 0.115499146282673, 32685, 31826, 23295, NaN
1472695266.066, 0.0216966886073351, -0.0851105898618698, 0.11580715328455, 32680, 31822, 23313, NaN
1472695267.074, 0.0267400983721018, -0.0853595808148384, 0.115989618003368, 32679, 31834, 23291, NaN
1472695268.074, 0.0320916287600994, -0.0858122557401657, 0.116867311298847, 32663, 31825, 23317, NaN
1472695269.074, 0.0363086089491844, -0.0848236009478569, 0.116961881518364, 32673, 31826, 23303, NaN
1472695270.074, 0.0400370657444, -0.0850984156131744, 0.117119044065475, 32693, 31829, 23297, NaN
1472695270.074, 0.0425766780972481, -0.0849822238087654, 0.117535427212715, 32686, 31813, 23290, NaN
1472695271.08, 0.0444123670458794, -0.0851586014032364, 0.117303736507893, 32678, 31818, 23291, NaN
1472695272.08, 0.0445739962160587, -0.0855741128325462, 0.117303766310215, 32690, 31818, 23298, NaN
1472695273.08, 0.0441757552325726, -0.0852828174829483, 0.118047505617142, 32678, 31825, 23284, NaN
1472695274.08, 0.0436332635581493, -0.0850282534956932, 0.117730595171452, 32687, 31828, 23298, NaN
1472695275.08, 0.0417416654527187, -0.0848987400531769, 0.117916718125343, 32690, 31825, 23295, NaN
1472695276.08, 0.0388771966099739, -0.0846682041883469, 0.118129476904869, 32666, 31827, 23307, NaN
1472695277.08, 0.0340052768588066, -0.0843927264213562, 0.117077961564064, 32684, 31828, 23298, NaN
1472695278.08, 0.0282687749713659, -0.0837673172354698, 0.117352001368999, 32678, 31814, 23299, NaN
1472695279.08, 0.0226820707321167, -0.0833942368626595, 0.116594113409519, 32687, 31828, 23290, NaN
1472695280.08, 0.0176432467997074, -0.0831456035375595, 0.11644646525383, 32668, 31817, 23306, NaN
1472695281.08, 0.0130938533693552, -0.082816407084465, 0.116584733128548, 32677, 31816, 23291, NaN
1472695282.08, 0.00915898010134697, -0.0824170410633087, 0.115834906697273, 32674, 31818, 23297, NaN
1472695283.08, 0.00573202362284064, -0.0820918008685112, 0.114965833723545, 32679, 31821, 23299, NaN
1472695284.08, 0.00291200657375157, -0.0824339836835861, 0.114644788205624, 32674, 31817, 23297, NaN
1472695285.08, 0.00017543944704812, -0.0830907672643661, 0.115326836705208, 32686, 31821, 23305, NaN
1472695286.08, -0.00200166180729866, -0.0832605361938477, 0.115224346518517, 32679, 31824, 23296, NaN
1472695287.08, -0.00384962325915694, -0.0836858972907066, 0.115939624607563, 32674, 31832, 23292, NaN
1472695288.088, -0.00493348017334938, -0.0830275416374207, 0.116080224514008, 32691, 31822, 23282, NaN
1472695289.088, -0.00644373940303922, -0.083200715482235, 0.115873418748379, 32674, 31831, 23307, NaN
1472695289.088, -0.00945794489234686, -0.0829001143574715, 0.116110824048519, 32671, 31821, 23323, NaN
1472695290.096, -0.0128700314089656, -0.0820975676178932, 0.115779213607311, 32684, 31814, 23302, NaN
1472695291.096, -0.0154295694082975, -0.08247459679842, 0.115800827741623, 32690, 31826, 23294, NaN
1472695292.096, -0.0170580185949802, -0.0828724950551987, 0.115553669631481, 32677, 31839, 23290, NaN
1472695293.096, -0.0190062336623669, -0.0828620940446854, 0.11665116995573, 32669, 31819, 23306, NaN
1472695293.096, -0.0202582757920027, -0.0819686651229858, 0.116232864558697, 32674, 31835, 23296, NaN
1472695294.102, -0.0213107168674469, -0.0825832486152649, 0.116323970258236, 32685, 31829, 23300, NaN
1472695295.102, -0.0219367053359747, -0.0822022780776024, 0.115334741771221, 32679, 31834, 23289, NaN
1472695296.102, -0.0221552643924952, -0.0824941024184227, 0.115093968808651, 32673, 31829, 23306, NaN
1472695297.102, -0.0218716822564602, -0.0825729221105576, 0.115248300135136, 32672, 31836, 23295, NaN
1472695297.102, -0.0211594197899103, -0.0825848057866096, 0.115633420646191, 32678, 31825, 23304, NaN
1472695298.108, -0.0202681515365839, -0.0824323296546936, 0.116415292024612, 32691, 31833, 23286, NaN
1472695299.108, -0.0188661888241768, -0.0826159939169884, 0.115868382155895, 32683, 31820, 23305, NaN
1472695300.108, -0.0174173433333635, -0.0835533067584038, 0.116418026387691, 32682, 31829, 23296, NaN
1472695301.108, -0.0155875254422426, -0.0836667120456696, 0.116885930299759, 32679, 31827, 23302, NaN
1472695302.108, -0.0145095214247704, -0.0833742246031761, 0.117028445005417, 32672, 31822, 23302, NaN
1472695303.108, -0.0133199924603105, -0.0833836942911148, 0.116283982992172, 32681, 31816, 23293, NaN
1472695304.108, -0.0115067465230823, -0.0840245932340622, 0.116853959858418, 32669, 31813, 23300, NaN
1472695305.108, -0.00728081446141005, -0.0839295834302902, 0.116571664810181, 32676, 31814, 23303, NaN
1472695306.108, 0.00170297629665583, -0.0832891315221786, 0.117052793502808, 32692, 31825, 23286, NaN
1472695307.108, 0.0159375369548798, -0.0835170522332191, 0.117172561585903, 32682, 31827, 23300, NaN
1472695308.108, 0.035257276147604, -0.0835679247975349, 0.11742327362299, 32676, 31823, 23291, NaN
1472695309.108, 0.0585235171020031, -0.0836982727050781, 0.118257693946362, 32674, 31828, 23288, 120.182838439941
1472695310.108, 0.084057942032814, -0.0844658613204956, 0.118009611964226, 32670, 31827, 23295, NaN
1472695311.108, 0.101711101830006, -0.0850515961647034, 0.117340445518494, 32667, 31824, 23295, NaN
1472695312.108, 0.0691480338573456, -0.0850501209497452, 0.118496879935265, 32684, 31834, 23306, NaN
1472695313.108, 0.0413741692900658, -0.085201732814312, 0.11952168494463, 32682, 31818, 23299, NaN
1472695314.108, 0.0180030781775713, -0.085322842001915, 0.118722766637802, 32664, 31826, 23301, NaN
1472695315.116, -0.00134381337556988, -0.0852145552635193, 0.118874855339527, 32678, 31823, 23287, NaN
1472695315.116, -0.0170358084142208, -0.0851434469223022, 0.118664667010307, 32676, 31826, 23294, NaN
1472695316.124, -0.029431413859129, -0.0853379741311073, 0.118790782988071, 32685, 31818, 23291, NaN
1472695317.124, -0.0388768203556538, -0.085214227437973, 0.118579752743244, 32663, 31837, 23305, NaN
1472695318.124, -0.0457044579088688, -0.0854433178901672, 0.118804939091206, 32672, 31827, 23311, NaN
1472695319.124, -0.0502316430211067, -0.0860913023352623, 0.119076073169708, 32678, 31818, 23318, NaN
1472695319.124, -0.0527593977749348, -0.086016833782196, 0.118760466575623, 32667, 31813, 23312, NaN
1472695320.13, -0.0535714477300644, -0.0862520411610603, 0.118476279079914, 32675, 31817, 23291, NaN
1472695321.13, -0.0529333800077438, -0.0861381515860558, 0.118344523012638, 32666, 31819, 23313, NaN
1472695322.13, -0.0510920621454716, -0.0851105824112892, 0.117705933749676, 32677, 31834, 23298, NaN
1472695323.13, -0.0482752211391926, -0.0848172605037689, 0.117994047701359, 32695, 31817, 23292, NaN
1472695324.13, -0.044691264629364, -0.0846850946545601, 0.118218071758747, 32672, 31817, 23300, NaN
1472695325.13, -0.0405292734503746, -0.0846740752458572, 0.118749134242535, 32679, 31828, 23293, NaN
1472695326.13, -0.0359592102468014, -0.0853003934025764, 0.119405351579189, 32662, 31818, 23304, NaN
1472695327.13, -0.0311322957277298, -0.0846753939986229, 0.120155245065689, 32686, 31820, 23280, NaN
1472695328.13, -0.0261815208941698, -0.084777943789959, 0.120898678898811, 32670, 31818, 23303, NaN
1472695329.13, -0.021222336217761, -0.0853319093585014, 0.120893150568008, 32676, 31814, 23295, NaN
1472695330.13, -0.0163534414023161, -0.0856873765587807, 0.121548689901829, 32676, 31822, 23296, NaN
1472695331.13, -0.011657684110105, -0.0870493054389954, 0.122123219072819, 32674, 31824, 23303, NaN
1472695331.49, -0.0100231226533651, -0.0870221257209778, 0.122095994651318, 32674, 31818, 23286, NaN
1472695332.47, -0.00566922407597303, -0.0867202579975128, 0.122775241732597, 32673, 31824, 23288, NaN
1472695333.47, -0.00162691064178944, -0.0865957736968994, 0.122835047543049, 32676, 31822, 23288, NaN
1472695334.47, 0.00206670677289367, -0.0860369950532913, 0.123180530965328, 32685, 31826, 23299, NaN
1472695335.47, 0.00538572063669562, -0.0859548002481461, 0.123048231005669, 32661, 31815, 23301, NaN
1472695336.47, 0.00831429194658995, -0.085955522954464, 0.122684419155121, 32665, 31827, 23311, NaN
1472695337.47, 0.0108455251902342, -0.0857520252466202, 0.122531026601791, 32679, 31828, 23299, NaN
1472695338.47, 0.0129803605377674, -0.0853439047932625, 0.122121348977089, 32666, 31821, 23295, NaN
1472695339.47, 0.0147265028208494, -0.0843844413757324, 0.122399352490902, 32692, 31819, 23285, NaN
1472695340.47, 0.0160128250718117, -0.0851277709007263, 0.123015038669109, 32678, 31828, 23298, NaN
1472695341.48, 0.0153165478259325, -0.0848593860864639, 0.123017378151417, 32679, 31834, 23283, NaN
1472695342.48, 0.0126963770017028, -0.0854919329285622, 0.123537018895149, 32688, 31828, 23287, NaN
1472695342.48, 0.00909742712974548, -0.0854958221316338, 0.122938007116318, 32676, 31818, 23295, NaN
1472695343.488, 0.00473002530634403, -0.0851080119609833, 0.122371509671211, 32668, 31821, 23304, NaN
1472695344.488, 0.000110567365481984, -0.0850449800491333, 0.122746206820011, 32687, 31828, 23278, NaN
1472695345.488, -0.00382766593247652, -0.0850308164954185, 0.123332232236862, 32666, 31830, 23308, NaN
1472695346.488, -0.00748330540955067, -0.0848771184682846, 0.122830383479595, 32674, 31829, 23301, NaN
1472695346.488, -0.0100419148802757, -0.0845875442028046, 0.122646376490593, 32679, 31822, 23300, NaN
1472695347.494, -0.0118489833548665, -0.0846166089177132, 0.122414030134678, 32682, 31835, 23292, NaN
1472695348.494, -0.0124639039859176, -0.0843187272548676, 0.122178241610527, 32676, 31818, 23306, NaN
1472695349.494, -0.011946284212172, -0.0838171243667603, 0.121875241398811, 32676, 31829, 23295, NaN
1472695350.494, -0.00973355118185282, -0.0843758285045624, 0.121187880635262, 32684, 31817, 23293, NaN
1472695350.494, -0.00747288530692458, -0.0846071019768715, 0.120580822229385, 32668, 31825, 23300, NaN
1472695351.5, -0.00496616587042809, -0.0848190635442734, 0.120936051011086, 32677, 31828, 23298, NaN
1472695352.5, -0.00198958069086075, -0.0848425254225731, 0.120754241943359, 32692, 31838, 23295, NaN
1472695353.5, 0.0013895450392738, -0.0846486911177635, 0.121375076472759, 32686, 31823, 23293, NaN
1472695354.5, 0.00552028696984053, -0.0843506529927254, 0.121288165450096, 32660, 31818, 23313, NaN
1472695355.5, 0.00948201771825552, -0.0845085829496384, 0.121191464364529, 32667, 31809, 23301, NaN
1472695356.5, 0.0134509867057204, -0.0856232419610023, 0.121798694133759, 32689, 31815, 23287, NaN
1472695357.5, 0.0174077041447163, -0.0853211060166359, 0.121697477996349, 32691, 31824, 23294, NaN
1472695358.5, 0.021185003221035, -0.0858399718999863, 0.121517695486546, 32685, 31823, 23295, NaN
1472695359.5, 0.0250774268060923, -0.085389256477356, 0.122328370809555, 32676, 31823, 23306, NaN
1472695360.5, 0.027899656444788, -0.0854111686348915, 0.121950715780258, 32676, 31816, 23295, NaN
1472695361.5, 0.0302128065377474, -0.0855907648801804, 0.122317358851433, 32680, 31822, 23295, NaN
1472695362.5, 0.03208227455616, -0.084989421069622, 0.122285969555378, 32677, 31839, 23307, NaN
1472695363.5, 0.0331335477530956, -0.0857706442475319, 0.122273437678814, 32668, 31829, 23311, NaN
1472695364.5, 0.0337169170379639, -0.0854467377066612, 0.121836356818676, 32680, 31826, 23303, 119.581336975098
1472695365.5, 0.0340113714337349, -0.0846561789512634, 0.122769065201283, 32692, 31829, 23298, NaN
1472695366.5, 0.0339954756200314, -0.0853692516684532, 0.12293366342783, 32677, 31829, 23285, NaN
1472695367.5, 0.0334110371768475, -0.085818849503994, 0.12258242815733, 32672, 31830, 23301, NaN
1472695368.51, 0.0329077914357185, -0.0853750556707382, 0.122750975191593, 32675, 31825, 23290, NaN
1472695368.51, 0.0312560275197029, -0.0849397853016853, 0.123395375907421, 32667, 31819, 23305, NaN
1472695369.518, 0.0280663184821606, -0.0862517282366753, 0.123054713010788, 32682, 31820, 23298, NaN
1472695370.518, 0.0241968613117933, -0.0874160826206207, 0.123021841049194, 32677, 31818, 23295, NaN
1472695371.518, 0.0198600888252258, -0.087842769920826, 0.122063964605331, 32677, 31814, 23290, NaN
1472695372.518, 0.0157483275979757, -0.0885657146573067, 0.122120074927807, 32683, 31825, 23294, NaN
1472695372.518, 0.0118881342932582, -0.0877619609236717, 0.121288292109966, 32676, 31832, 23295, NaN
1472695373.524, 0.00836313143372536, -0.0882266387343407, 0.121411539614201, 32663, 31816, 23302, NaN
1472695374.524, 0.00511670205742121, -0.0885014235973358, 0.121288947761059, 32688, 31828, 23292, NaN
1472695375.524, 0.00228639459237456, -0.0884125381708145, 0.122090294957161, 32685, 31825, 23298, NaN
1472695376.524, -0.000206938362680376, -0.0889377892017365, 0.12232182174921, 32684, 31817, 23286, NaN
1472695377.524, -0.00199569878168404, -0.0890662744641304, 0.12188932299614, 32690, 31829, 23291, NaN
1472695378.524, -0.00291951559484005, -0.0892004147171974, 0.121692664921284, 32668, 31826, 23299, NaN
1472695379.524, -0.00475531304255128, -0.0898673832416534, 0.12152872979641, 32673, 31826, 23300, NaN
1472695380.524, -0.00692071625962853, -0.0903630778193474, 0.120936833322048, 32679, 31818, 23300, NaN
1472695381.524, -0.0106857819482684, -0.0895469337701797, 0.120576933026314, 32688, 31816, 23289, NaN
1472695382.524, -0.014871871098876, -0.0891473889350891, 0.119996555149555, 32666, 31813, 23301, NaN
1472695383.524, -0.0183577295392752, -0.0889253169298172, 0.119801990687847, 32675, 31815, 23293, NaN
1472695384.524, -0.0205587558448315, -0.0890613496303558, 0.119449310004711, 32693, 31830, 23278, NaN
1472695385.524, -0.0214371345937252, -0.0890503600239754, 0.119671173393726, 32663, 31829, 23304, NaN
1472695386.524, -0.0226099248975515, -0.089027427136898, 0.119676306843758, 32680, 31821, 23305, NaN
1472695387.524, -0.0229844953864813, -0.0883218422532082, 0.118963301181793, 32677, 31827, 23309, NaN
1472695388.524, -0.0224495809525251, -0.0881235674023628, 0.118940934538841, 32670, 31834, 23295, NaN
1472695389.524, -0.020693140104413, -0.0882735922932625, 0.118274338543415, 32673, 31826, 23299, NaN
1472695390.524, -0.0178668852895498, -0.0887177437543869, 0.118258208036423, 32684, 31820, 23292, NaN
1472695391.524, -0.0160335954278708, -0.0896562784910202, 0.117280304431915, 32679, 31822, 23297, NaN
1472695392.524, -0.0149292824789882, -0.0901424437761307, 0.117466315627098, 32673, 31822, 23290, NaN
1472695393.524, -0.0137995146214962, -0.0897558256983757, 0.116859197616577, 32677, 31826, 23294, NaN
1472695394.524, -0.0125634856522083, -0.0895998924970627, 0.116679713129997, 32680, 31823, 23285, NaN
1472695395.532, -0.0113886427134275, -0.0894260257482529, 0.115921586751938, 32681, 31833, 23305, NaN
1472695396.532, -0.011146629229188, -0.0898382663726807, 0.115816600620747, 32686, 31825, 23301, NaN
1472695396.532, -0.0109453089535236, -0.0907412990927696, 0.115647464990616, 32674, 31826, 23301, NaN
1472695397.54, -0.0113995643332601, -0.0907580330967903, 0.11493556946516, 32681, 31812, 23304, NaN
1472695398.54, -0.0112546887248755, -0.090925045311451, 0.115517467260361, 32684, 31832, 23307, NaN
1472695399.54, -0.0111126694828272, -0.0910584107041359, 0.115947552025318, 32680, 31816, 23293, NaN
1472695400.54, -0.0101521508768201, -0.0912769436836243, 0.115670256316662, 32677, 31832, 23302, NaN
1472695400.54, -0.00849702768027782, -0.0905676856637001, 0.116262264549732, 32686, 31825, 23300, NaN
1472695401.546, -0.00672536063939333, -0.0903848260641098, 0.117021612823009, 32686, 31814, 23296, NaN
1472695402.546, -0.00462116533890367, -0.0898561552166939, 0.117634147405624, 32680, 31820, 23296, NaN
1472695403.546, -0.00260333833284676, -0.0907040983438492, 0.118227250874043, 32665, 31817, 23296, NaN
1472695404.546, -0.000190619379281998, -0.0908614471554756, 0.117904596030712, 32670, 31814, 23296, NaN
1472695404.546, 0.00153128267265856, -0.0911203995347023, 0.11784204095602, 32682, 31832, 23295, NaN
1472695405.552, 0.003201904008165, -0.0904430523514748, 0.117443792521954, 32681, 31828, 23293, NaN
1472695406.552, 0.00504871504381299, -0.0905248671770096, 0.117614313960075, 32672, 31843, 23296, NaN
1472695407.552, 0.00612241588532925, -0.0905835777521133, 0.117118827998638, 32675, 31828, 23300, NaN
1472695408.552, 0.00712117133662105, -0.0906018018722534, 0.117597587406635, 32674, 31819, 23307, NaN
1472695408.552, 0.00768685899674892, -0.0900922194123268, 0.116930052638054, 32691, 31826, 23292, NaN
1472695409.556, 0.00834894459694624, -0.0900573581457138, 0.116804182529449, 32672, 31819, 23297, NaN
1472695410.556, 0.00949264410883188, -0.0897799283266068, 0.116253592073917, 32675, 31835, 23291, NaN
1472695411.556, 0.00977495778352022, -0.0885543301701546, 0.116820767521858, 32661, 31818, 23296, NaN
1472695412.556, 0.00918635632842779, -0.0889626666903496, 0.116786517202854, 32686, 31821, 23298, NaN